Terminal Aerodrome Forecast
Issued by NWS Binghamton, NY

Home | Current Version | Previous Version | Text Only | Print | Product List | Glossary On
Versions: 1 2 3 4 5 6 7 8 9 10 11 12 13 14 15 16
000
FTUS41 KBGM 221700
TAFSYR
TAF
KSYR 221730Z 2218/2318 24005KT P6SM BKN050
     FM230000 23003KT P6SM SCT050
      TEMPO 2310/2314 BKN050
     FM231400 25012KT P6SM BKN035=

USA.gov is the U.S. government's official web portal to all federal, state and local government web resources and services.